Погода на Острове Пасхи

Чили     27°07′17″S   109°21′42″W
темп.,
°C
ветер,
м/с
пор.,
м/с
влажн.,
%
обл.,
%
осадки,
мм/ч
давл.,
гПа
погр.,
м
31 июля, сб
сб3100:00+20с1011828 0.1 1019895
03:00+20с10138220 0.0 1018784
06:00+20ссз10128492 0.0 1017947
09:00+20ссз9118584 0.1 1018806
12:00+20ссз9128574 0.3 1019722
15:00+21ссз9138599 0.0 1017751
18:00+21ссз9138386 0.1 1017735
21:00+21ссз9138395 0.3 1018756
1 августа, вс
вс100:00+20ссз9138330 0.8 1019819
03:00+20ссз10138499 0.4 1018876
06:00+20ссз91284100 0.8 1017927
09:00+20с9128314 0.1 1018789
12:00+21с10148337 0.2 1017772
15:00+20с12168260 0.5 1014891
18:00+21ссз131679100 1.6 1014976
21:00+21ссз13168097 1.0 1015898
2 августа, пн
пн200:00+20ссз131781100 3.3 1013948
03:00+20ссз141985100 2.4 10111352
06:00+19зсз121494100 14.4 1010959
09:00+18сз81186100 14.8 1012761
12:00+18сз131587100 17.7 1012967
15:00+17зюз91088100 6.6 1010630
18:00+17зюз6975100 13.6 1010801
21:00+16ююз5680100 7.7 1011535
3 августа, вт
вт300:00+18зюз8106399 12.5 10121357
03:00+18зюз10106643 0.5 10111339
06:00+17зюз101066100 0.8 10121334
09:00+17зюз1010664 0.2 10141354
12:00+16зюз1010700 0.6 10151218
15:00+17юз1011625 0.6 10141649
18:00+17ююз1011644 0.9 10141589
21:00+17юз89588 0.4 10171811
4 августа, ср
ср400:00+18юз89480 0.4 10171956
03:00+18зюз8956100 0.1 10171754
06:00+18зюз995897 0.1 10171502
09:00+17зюз89595 0.9 10191585
12:00+18зюз885998 0.9 10201494
15:00+18з7960100 0.1 10181789
18:00+17юз8966100 1.5 10181156
21:00+18юз8955100 0.0 10201807